Time,TemperatureF,DewpointF,PressureIn,WindDirection,WindDirectionDegrees,WindSpeedMPH,WindSpeedGustMPH,Humidity,HourlyPrecipIn,Conditions,Clouds,dailyrainin,SolarRadiationWatts/m^2,SoftwareType,DateUTC
2013-09-17 00:01:00,37.8,36.0,30.38,WNW,291,0.0,0.0,93,0.00,RA,,0.00,0.0,WeatherDisplay:10.37,2013-09-17 04:01:00,
2013-09-17 00:02:00,37.8,36.0,30.38,WNW,291,0.0,0.0,93,0.00,RA,,0.00,0.0,WeatherDisplay:10.37,2013-09-17 04:02:00,
2013-09-17 00:03:00,37.8,36.0,30.38,WNW,291,0.0,0.0,93,0.00,RA,,0.00,0.0,WeatherDisplay:10.37,2013-09-17 04:03:00,
2013-09-17 00:07:00,37.6,36.0,30.38,WNW,291,0.0,0.0,94,0.00,RA,,0.00,0.0,WeatherDisplay:10.37,2013-09-17 04:07:00,
2013-09-17 00:12:00,37.8,36.2,30.37,WNW,291,0.0,0.0,94,0.00,CLR,,0.00,0.0,WeatherDisplay:10.37,2013-09-17 04:12:00,
2013-09-17 00:17:00,37.5,35.9,30.37,WNW,291,0.0,0.0,94,0.00,CLR,,0.00,0.0,WeatherDisplay:10.37,2013-09-17 04:17:00,
2013-09-17 00:22:00,37.3,35.7,30.37,WNW,291,0.0,0.0,94,0.00,CLR,,0.00,0.0,WeatherDisplay:10.37,2013-09-17 04:22:00,
2013-09-17 00:27:00,37.3,35.7,30.38,WNW,291,0.0,0.0,94,0.00,CLR,,0.00,0.0,WeatherDisplay:10.37,2013-09-17 04:27:00,
2013-09-17 00:32:00,37.3,35.7,30.38,WNW,291,0.0,0.0,94,0.00,CLR,,0.00,0.0,WeatherDisplay:10.37,2013-09-17 04:32:00,
2013-09-17 00:37:00,37.2,35.6,30.38,WNW,291,0.0,0.0,94,0.00,CLR,,0.00,0.0,WeatherDisplay:10.37,2013-09-17 04:37:00,
2013-09-17 00:42:00,37.0,35.4,30.39,WNW,291,0.0,0.0,94,0.00,CLR,,0.00,0.0,WeatherDisplay:10.37,2013-09-17 04:42:00,
2013-09-17 00:47:00,37.0,35.4,30.39,WNW,291,0.0,0.0,94,0.00,CLR,,0.00,0.0,WeatherDisplay:10.37,2013-09-17 04:47:00,
2013-09-17 00:52:00,36.9,35.3,30.39,WNW,291,0.0,0.0,94,0.00,CLR,,0.00,0.0,WeatherDisplay:10.37,2013-09-17 04:52:00,
2013-09-17 00:57:00,36.8,35.2,30.39,WNW,291,0.0,0.0,94,0.00,CLR,,0.00,0.0,WeatherDisplay:10.37,2013-09-17 04:57:00,
2013-09-17 01:02:00,36.5,34.9,30.39,WNW,291,0.0,0.0,94,0.00,CLR,,0.00,0.0,WeatherDisplay:10.37,2013-09-17 05:02:00,
2013-09-17 01:07:00,36.3,34.7,30.39,WNW,291,0.0,0.0,94,0.00,CLR,,0.00,0.0,WeatherDisplay:10.37,2013-09-17 05:07:00,
2013-09-17 01:12:00,36.2,34.6,30.39,WNW,291,0.0,0.0,94,0.00,CLR,,0.00,0.0,WeatherDisplay:10.37,2013-09-17 05:12:00,
2013-09-17 01:17:00,36.2,34.6,30.39,WNW,291,0.0,0.0,94,0.00,CLR,,0.00,0.0,WeatherDisplay:10.37,2013-09-17 05:17:00,
2013-09-17 01:22:00,36.0,34.4,30.39,WNW,291,0.0,0.0,94,0.00,CLR,,0.00,0.0,WeatherDisplay:10.37,2013-09-17 05:22:00,
2013-09-17 01:27:00,36.0,34.4,30.39,WNW,291,0.0,0.0,94,0.00,CLR,,0.00,0.0,WeatherDisplay:10.37,2013-09-17 05:27:00,
2013-09-17 01:32:00,35.9,34.3,30.39,WNW,291,0.0,0.0,94,0.00,CLR,,0.00,0.0,WeatherDisplay:10.37,2013-09-17 05:32:00,
2013-09-17 01:37:00,35.9,34.3,30.39,WNW,291,0.0,0.0,94,0.00,CLR,,0.00,0.0,WeatherDisplay:10.37,2013-09-17 05:37:00,
2013-09-17 01:42:00,35.9,34.6,30.39,WNW,291,0.0,0.0,95,0.00,CLR,,0.00,0.0,WeatherDisplay:10.37,2013-09-17 05:42:00,
2013-09-17 01:47:00,35.8,34.2,30.39,WNW,291,0.0,0.0,94,0.00,CLR,,0.00,0.0,WeatherDisplay:10.37,2013-09-17 05:47:00,
2013-09-17 01:52:00,35.8,34.5,30.39,WNW,291,0.0,0.0,95,0.00,CLR,,0.00,0.0,WeatherDisplay:10.37,2013-09-17 05:52:00,
2013-09-17 01:57:00,35.6,34.3,30.39,WNW,291,0.0,0.0,95,0.00,CLR,,0.00,0.0,WeatherDisplay:10.37,2013-09-17 05:57:00,
2013-09-17 02:02:00,35.5,34.2,30.39,WNW,291,0.0,0.0,95,0.00,CLR,,0.00,0.0,WeatherDisplay:10.37,2013-09-17 06:02:00,
2013-09-17 02:07:00,35.3,34.0,30.39,WNW,291,0.0,0.0,95,0.00,CLR,,0.00,0.0,WeatherDisplay:10.37,2013-09-17 06:07:00,
2013-09-17 02:12:00,35.3,34.0,30.40,WNW,291,0.0,0.0,95,0.00,CLR,,0.00,0.0,WeatherDisplay:10.37,2013-09-17 06:12:00,
2013-09-17 02:17:00,35.3,34.0,30.40,WNW,291,1.2,0.0,95,0.00,CLR,,0.00,0.0,WeatherDisplay:10.37,2013-09-17 06:17:00,
2013-09-17 02:22:00,35.3,34.0,30.40,WNW,291,0.0,0.0,95,0.00,CLR,,0.00,0.0,WeatherDisplay:10.37,2013-09-17 06:22:00,
2013-09-17 02:27:00,35.2,33.9,30.40,WNW,291,0.0,0.0,95,0.00,CLR,,0.00,0.0,WeatherDisplay:10.37,2013-09-17 06:27:00,
2013-09-17 02:32:00,34.9,33.6,30.40,WNW,291,0.0,0.0,95,0.00,CLR,,0.00,0.0,WeatherDisplay:10.37,2013-09-17 06:32:00,
2013-09-17 02:37:00,34.7,33.4,30.40,WNW,291,0.0,0.0,95,0.00,CLR,,0.00,0.0,WeatherDisplay:10.37,2013-09-17 06:37:00,
2013-09-17 02:42:00,34.7,33.4,30.40,WNW,291,0.0,0.0,95,0.00,CLR,,0.00,0.0,WeatherDisplay:10.37,2013-09-17 06:42:00,
2013-09-17 02:47:00,34.6,33.3,30.40,WNW,291,0.0,0.0,95,0.00,CLR,,0.00,0.0,WeatherDisplay:10.37,2013-09-17 06:47:00,
2013-09-17 02:52:00,34.6,33.3,30.40,WNW,291,0.0,0.0,95,0.00,CLR,,0.00,0.0,WeatherDisplay:10.37,2013-09-17 06:52:00,
2013-09-17 02:57:00,34.7,33.4,30.41,WNW,291,0.0,0.0,95,0.00,CLR,,0.00,0.0,WeatherDisplay:10.37,2013-09-17 06:57:00,
2013-09-17 03:02:00,34.4,33.1,30.41,WNW,291,0.0,0.0,95,0.00,CLR,,0.00,0.0,WeatherDisplay:10.37,2013-09-17 07:02:00,
2013-09-17 03:07:00,34.3,33.0,30.41,WNW,291,0.0,0.0,95,0.00,CLR,,0.00,0.0,WeatherDisplay:10.37,2013-09-17 07:07:00,
2013-09-17 03:12:00,34.4,33.1,30.41,WNW,291,0.0,0.0,95,0.00,CLR,,0.00,0.0,WeatherDisplay:10.37,2013-09-17 07:12:00,
2013-09-17 03:17:00,34.4,33.1,30.41,WNW,291,0.0,0.0,95,0.00,CLR,,0.00,0.0,WeatherDisplay:10.37,2013-09-17 07:17:00,
2013-09-17 03:22:00,34.3,33.0,30.41,WNW,291,0.0,0.0,95,0.00,CLR,,0.00,0.0,WeatherDisplay:10.37,2013-09-17 07:22:00,
2013-09-17 03:27:00,34.1,32.8,30.41,WNW,291,0.0,0.0,95,0.00,CLR,,0.00,0.0,WeatherDisplay:10.37,2013-09-17 07:27:00,
2013-09-17 03:32:00,34.0,32.7,30.41,WNW,291,0.0,0.0,95,0.00,CLR,,0.00,0.0,WeatherDisplay:10.37,2013-09-17 07:32:00,
2013-09-17 03:37:00,34.0,32.7,30.41,WNW,291,0.0,0.0,95,0.00,CLR,,0.00,0.0,WeatherDisplay:10.37,2013-09-17 07:37:00,
2013-09-17 03:42:00,34.0,32.7,30.41,WNW,291,0.0,0.0,95,0.00,CLR,,0.00,0.0,WeatherDisplay:10.37,2013-09-17 07:42:00,
2013-09-17 03:47:00,34.0,32.7,30.41,WNW,291,0.0,0.0,95,0.00,CLR,,0.00,0.0,WeatherDisplay:10.37,2013-09-17 07:47:00,
2013-09-17 03:52:00,33.8,32.5,30.41,WNW,291,0.0,0.0,95,0.00,CLR,,0.00,0.0,WeatherDisplay:10.37,2013-09-17 07:52:00,
2013-09-17 03:57:00,33.7,32.4,30.41,WNW,291,0.0,0.0,95,0.00,CLR,,0.00,0.0,WeatherDisplay:10.37,2013-09-17 07:57:00,
2013-09-17 04:02:00,33.4,32.1,30.41,WNW,291,0.0,0.0,95,0.00,CLR,,0.00,0.0,WeatherDisplay:10.37,2013-09-17 08:02:00,
2013-09-17 04:07:00,33.2,31.9,30.41,WNW,291,0.0,0.0,95,0.00,CLR,,0.00,0.0,WeatherDisplay:10.37,2013-09-17 08:07:00,
2013-09-17 04:12:00,33.4,32.1,30.41,WNW,291,0.0,0.0,95,0.00,CLR,,0.00,0.0,WeatherDisplay:10.37,2013-09-17 08:12:00,
2013-09-17 04:17:00,33.5,32.2,30.41,WNW,291,0.0,0.0,95,0.00,CLR,,0.00,0.0,WeatherDisplay:10.37,2013-09-17 08:17:00,
2013-09-17 04:22:00,33.5,32.2,30.41,WNW,291,0.0,0.0,95,0.00,CLR,,0.00,0.0,WeatherDisplay:10.37,2013-09-17 08:22:00,
2013-09-17 04:27:00,33.4,32.1,30.41,WNW,291,0.0,0.0,95,0.00,CLR,,0.00,0.0,WeatherDisplay:10.37,2013-09-17 08:27:00,
2013-09-17 04:32:00,33.4,32.1,30.41,WNW,291,0.0,0.0,95,0.00,CLR,,0.00,0.0,WeatherDisplay:10.37,2013-09-17 08:32:00,
2013-09-17 04:37:00,33.4,32.1,30.41,WNW,291,0.0,0.0,95,0.00,CLR,,0.00,0.0,WeatherDisplay:10.37,2013-09-17 08:37:00,
2013-09-17 04:42:00,33.4,32.1,30.41,WNW,291,0.0,0.0,95,0.00,CLR,,0.00,0.0,WeatherDisplay:10.37,2013-09-17 08:42:00,
2013-09-17 04:47:00,33.2,31.9,30.41,WNW,291,0.0,0.0,95,0.00,CLR,,0.00,0.0,WeatherDisplay:10.37,2013-09-17 08:47:00,
2013-09-17 04:52:00,33.2,31.9,30.41,WNW,291,0.0,0.0,95,0.00,CLR,,0.00,0.0,WeatherDisplay:10.37,2013-09-17 08:52:00,
2013-09-17 04:57:00,33.2,31.9,30.42,WNW,291,0.0,0.0,95,0.00,CLR,,0.00,0.0,WeatherDisplay:10.37,2013-09-17 08:57:00,
2013-09-17 05:02:00,33.1,31.8,30.42,WNW,291,0.0,0.0,95,0.00,CLR,,0.00,0.0,WeatherDisplay:10.37,2013-09-17 09:02:00,
2013-09-17 05:07:00,32.9,31.6,30.42,WNW,291,0.0,0.0,95,0.00,CLR,,0.00,0.0,WeatherDisplay:10.37,2013-09-17 09:07:00,
2013-09-17 05:12:00,32.9,31.6,30.43,WNW,291,0.0,0.0,95,0.00,CLR,,0.00,0.0,WeatherDisplay:10.37,2013-09-17 09:12:00,
2013-09-17 05:17:00,32.8,31.5,30.43,WNW,291,0.0,0.0,95,0.00,CLR,,0.00,0.0,WeatherDisplay:10.37,2013-09-17 09:17:00,
2013-09-17 05:22:00,32.7,31.4,30.43,WNW,291,0.0,0.0,95,0.00,CLR,,0.00,0.0,WeatherDisplay:10.37,2013-09-17 09:22:00,
2013-09-17 05:27:00,32.7,31.4,30.43,WNW,291,0.0,0.0,95,0.00,CLR,,0.00,0.0,WeatherDisplay:10.37,2013-09-17 09:27:00,
2013-09-17 05:32:00,32.5,31.2,30.43,WNW,291,0.0,0.0,95,0.00,CLR,,0.00,0.0,WeatherDisplay:10.37,2013-09-17 09:32:00,
2013-09-17 05:37:00,32.4,31.1,30.43,WNW,291,0.0,0.0,95,0.00,CLR,,0.00,0.0,WeatherDisplay:10.37,2013-09-17 09:37:00,
2013-09-17 05:42:00,32.4,31.1,30.43,WNW,291,0.0,0.0,95,0.00,CLR,,0.00,0.0,WeatherDisplay:10.37,2013-09-17 09:42:00,
2013-09-17 05:47:00,32.2,30.9,30.43,WNW,291,0.0,0.0,95,0.00,CLR,,0.00,0.0,WeatherDisplay:10.37,2013-09-17 09:47:00,
2013-09-17 05:52:00,32.1,30.8,30.43,WNW,291,0.0,0.0,95,0.00,CLR,,0.00,0.0,WeatherDisplay:10.37,2013-09-17 09:52:00,
2013-09-17 05:57:00,32.1,30.8,30.44,WNW,291,0.0,0.0,95,0.00,CLR,,0.00,0.0,WeatherDisplay:10.37,2013-09-17 09:57:00,
2013-09-17 06:02:00,32.1,30.8,30.44,WNW,291,0.0,0.0,95,0.00,CLR,,0.00,0.0,WeatherDisplay:10.37,2013-09-17 10:02:00,
2013-09-17 06:07:00,32.1,30.8,30.44,WNW,291,0.0,0.0,95,0.00,CLR,,0.00,0.0,WeatherDisplay:10.37,2013-09-17 10:07:00,
2013-09-17 06:12:00,31.9,30.6,30.45,WNW,291,0.0,0.0,95,0.00,CLR,,0.00,0.0,WeatherDisplay:10.37,2013-09-17 10:12:00,
2013-09-17 06:17:00,31.9,30.6,30.45,WNW,291,0.0,0.0,95,0.00,CLR,,0.00,0.0,WeatherDisplay:10.37,2013-09-17 10:17:00,
2013-09-17 06:22:00,31.9,30.6,30.45,WNW,291,0.0,0.0,95,0.00,CLR,,0.00,0.0,WeatherDisplay:10.37,2013-09-17 10:22:00,
2013-09-17 06:27:00,31.8,30.5,30.45,WNW,291,0.0,0.0,95,0.00,CLR,,0.00,0.0,WeatherDisplay:10.37,2013-09-17 10:27:00,
2013-09-17 06:32:00,31.8,30.5,30.45,WNW,291,0.0,0.0,95,0.00,CLR,,0.00,0.0,WeatherDisplay:10.37,2013-09-17 10:32:00,
2013-09-17 06:37:00,31.8,30.5,30.45,WNW,291,0.0,0.0,95,0.00,CLR,,0.00,0.0,WeatherDisplay:10.37,2013-09-17 10:37:00,
2013-09-17 06:42:00,31.6,30.3,30.46,WNW,291,0.0,0.0,95,0.00,CLR,,0.00,0.0,WeatherDisplay:10.37,2013-09-17 10:42:00,
2013-09-17 06:47:00,31.6,30.3,30.46,WNW,291,0.0,0.0,95,0.00,CLR,,0.00,5.0,WeatherDisplay:10.37,2013-09-17 10:47:00,
2013-09-17 06:52:00,31.5,30.2,30.46,WNW,291,0.0,0.0,95,0.00,CLR,,0.00,7.0,WeatherDisplay:10.37,2013-09-17 10:52:00,
2013-09-17 06:57:00,31.5,30.2,30.46,WNW,291,0.0,0.0,95,0.00,CLR,,0.00,9.0,WeatherDisplay:10.37,2013-09-17 10:57:00,
2013-09-17 07:02:00,31.5,30.2,30.46,WNW,291,0.0,0.0,95,0.00,CLR,,0.00,11.0,WeatherDisplay:10.37,2013-09-17 11:02:00,
2013-09-17 07:07:00,31.6,30.3,30.46,WNW,291,0.0,0.0,95,0.00,CLR,,0.00,12.0,WeatherDisplay:10.37,2013-09-17 11:07:00,
2013-09-17 07:12:00,31.6,30.6,30.47,WNW,291,0.0,0.0,96,0.00,CLR,,0.00,14.0,WeatherDisplay:10.37,2013-09-17 11:12:00,
2013-09-17 07:17:00,31.9,30.9,30.47,WNW,291,0.0,0.0,96,0.00,CLR,,0.00,16.0,WeatherDisplay:10.37,2013-09-17 11:17:00,
2013-09-17 07:22:00,32.2,31.2,30.47,WNW,291,0.0,0.0,96,0.00,CLR,,0.00,39.0,WeatherDisplay:10.37,2013-09-17 11:22:00,
2013-09-17 07:27:00,32.5,31.5,30.47,WNW,291,0.0,0.0,96,0.00,CLR,,0.00,37.0,WeatherDisplay:10.37,2013-09-17 11:27:00,
2013-09-17 07:32:00,33.1,32.1,30.47,WNW,291,1.2,0.0,96,0.00,CLR,,0.00,65.0,WeatherDisplay:10.37,2013-09-17 11:32:00,
2013-09-17 07:37:00,33.7,32.7,30.47,WNW,291,0.0,0.0,96,0.00,CLR,,0.00,77.0,WeatherDisplay:10.37,2013-09-17 11:37:00,
2013-09-17 07:42:00,34.9,33.9,30.47,WNW,291,0.0,0.0,96,0.00,CLR,,0.00,95.0,WeatherDisplay:10.37,2013-09-17 11:42:00,
2013-09-17 07:47:00,36.8,35.8,30.47,WNW,291,0.0,0.0,96,0.00,CLR,,0.00,111.0,WeatherDisplay:10.37,2013-09-17 11:47:00,
2013-09-17 07:52:00,38.3,37.5,30.47,WNW,291,0.0,0.0,97,0.00,CLR,,0.00,125.0,WeatherDisplay:10.37,2013-09-17 11:52:00,
2013-09-17 07:57:00,39.5,38.7,30.48,WNW,291,0.0,0.0,97,0.00,CLR,,0.00,146.0,WeatherDisplay:10.37,2013-09-17 11:57:00,
2013-09-17 08:02:00,39.5,38.7,30.48,SE,144,1.0,0.0,97,0.00,CLR,,0.00,160.0,WeatherDisplay:10.37,2013-09-17 12:02:00,
2013-09-17 08:07:00,39.3,38.5,30.48,SE,144,0.0,0.0,97,0.00,CLR,,0.00,181.0,WeatherDisplay:10.37,2013-09-17 12:07:00,
2013-09-17 08:12:00,39.9,39.1,30.48,SE,144,0.0,0.0,97,0.00,CLR,,0.00,195.0,WeatherDisplay:10.37,2013-09-17 12:12:00,
2013-09-17 08:17:00,40.6,39.8,30.48,SE,144,0.0,0.0,97,0.00,CLR,,0.00,213.0,WeatherDisplay:10.37,2013-09-17 12:17:00,
2013-09-17 08:22:00,41.2,40.4,30.48,SE,144,0.0,0.0,97,0.00,CLR,,0.00,223.0,WeatherDisplay:10.37,2013-09-17 12:22:00,
2013-09-17 08:27:00,41.9,40.8,30.49,SE,144,1.2,0.0,96,0.00,CLR,,0.00,241.0,WeatherDisplay:10.37,2013-09-17 12:27:00,
2013-09-17 08:32:00,41.8,40.7,30.49,SE,142,0.0,0.0,96,0.00,CLR,,0.00,257.0,WeatherDisplay:10.37,2013-09-17 12:32:00,
2013-09-17 08:37:00,42.1,41.0,30.49,SE,142,0.0,0.0,96,0.00,CLR,,0.00,239.0,WeatherDisplay:10.37,2013-09-17 12:37:00,
2013-09-17 08:42:00,42.6,41.5,30.49,SE,142,0.0,0.0,96,0.00,CLR,,0.00,287.0,WeatherDisplay:10.37,2013-09-17 12:42:00,
2013-09-17 08:47:00,43.9,42.6,30.49,SE,142,0.0,0.0,95,0.00,CLR,,0.00,299.0,WeatherDisplay:10.37,2013-09-17 12:47:00,
2013-09-17 08:52:00,45.2,43.9,30.49,SE,142,0.0,0.0,95,0.00,CLR,,0.00,315.0,WeatherDisplay:10.37,2013-09-17 12:52:00,
2013-09-17 08:57:00,46.0,43.8,30.49,SE,143,1.0,0.0,92,0.00,CLR,,0.00,332.0,WeatherDisplay:10.37,2013-09-17 12:57:00,
2013-09-17 09:02:00,46.0,43.2,30.49,South,169,0.0,0.0,90,0.00,CLR,,0.00,350.0,WeatherDisplay:10.37,2013-09-17 13:02:00,
2013-09-17 09:07:00,46.1,42.4,30.49,South,169,0.0,0.0,87,0.00,CLR,,0.00,371.0,WeatherDisplay:10.37,2013-09-17 13:07:00,
2013-09-17 09:12:00,46.4,42.7,30.50,South,174,0.0,0.0,87,0.00,CLR,,0.00,362.0,WeatherDisplay:10.37,2013-09-17 13:12:00,
2013-09-17 09:17:00,47.9,43.9,30.50,South,178,0.0,0.0,86,0.00,CLR,,0.00,397.0,WeatherDisplay:10.37,2013-09-17 13:17:00,
2013-09-17 09:22:00,47.6,41.7,30.50,North,356,0.0,0.0,80,0.00,CLR,,0.00,411.0,WeatherDisplay:10.37,2013-09-17 13:22:00,
2013-09-17 09:27:00,48.0,41.8,30.50,North,356,0.0,0.0,79,0.00,CLR,,0.00,429.0,WeatherDisplay:10.37,2013-09-17 13:27:00,
2013-09-17 09:32:00,48.8,41.9,30.50,North,356,0.0,0.0,77,0.00,CLR,,0.00,443.0,WeatherDisplay:10.37,2013-09-17 13:32:00,
2013-09-17 09:37:00,48.8,41.2,30.50,ESE,110,1.2,1.2,75,0.00,CLR,,0.00,459.0,WeatherDisplay:10.37,2013-09-17 13:37:00,
2013-09-17 09:42:00,48.9,41.7,30.50,ESE,110,0.0,0.0,76,0.00,CLR,,0.00,476.0,WeatherDisplay:10.37,2013-09-17 13:42:00,
2013-09-17 09:47:00,49.4,42.1,30.50,ESE,110,0.0,0.0,76,0.00,CLR,,0.00,487.0,WeatherDisplay:10.37,2013-09-17 13:47:00,
2013-09-17 09:52:00,49.9,41.9,30.50,East,95,1.2,1.2,74,0.00,CLR,,0.00,504.0,WeatherDisplay:10.37,2013-09-17 13:52:00,
2013-09-17 09:57:00,50.2,41.9,30.50,East,95,0.0,0.0,73,0.00,CLR,,0.00,517.0,WeatherDisplay:10.37,2013-09-17 13:57:00,
2013-09-17 10:02:00,50.4,42.4,30.50,East,84,0.0,0.0,74,0.00,CLR,,0.00,527.0,WeatherDisplay:10.37,2013-09-17 14:02:00,
2013-09-17 10:07:00,50.4,41.7,30.50,SE,124,1.2,0.0,72,0.00,CLR,,0.00,543.0,WeatherDisplay:10.37,2013-09-17 14:07:00,
2013-09-17 10:12:00,50.8,42.5,30.50,SE,124,3.0,3.0,73,0.00,CLR,,0.00,555.0,WeatherDisplay:10.37,2013-09-17 14:12:00,
2013-09-17 10:17:00,51.0,42.3,30.50,ESE,108,0.0,0.0,72,0.00,CLR,,0.00,571.0,WeatherDisplay:10.37,2013-09-17 14:17:00,
2013-09-17 10:22:00,50.7,42.0,30.50,ENE,66,0.0,0.0,72,0.00,CLR,,0.00,582.0,WeatherDisplay:10.37,2013-09-17 14:22:00,
2013-09-17 10:27:00,51.7,44.4,30.50,NE,42,1.0,1.0,76,0.00,CLR,,0.00,591.0,WeatherDisplay:10.37,2013-09-17 14:27:00,
2013-09-17 10:32:00,52.0,42.9,30.50,NE,40,0.0,0.0,71,0.00,CLR,,0.00,605.0,WeatherDisplay:10.37,2013-09-17 14:32:00,
2013-09-17 10:37:00,52.2,42.3,30.50,WNW,298,1.0,1.0,69,0.00,CLR,,0.00,606.0,WeatherDisplay:10.37,2013-09-17 14:37:00,
2013-09-17 10:42:00,53.1,45.0,30.50,North,352,3.5,3.5,74,0.00,CLR,,0.00,519.0,WeatherDisplay:10.37,2013-09-17 14:42:00,
2013-09-17 10:47:00,53.1,43.6,30.50,North,350,2.0,2.0,70,0.00,CLR,,0.00,640.0,WeatherDisplay:10.37,2013-09-17 14:47:00,
2013-09-17 10:52:00,53.8,45.0,30.50,NW,307,3.5,3.5,72,0.00,CLR,,0.00,650.0,WeatherDisplay:10.37,2013-09-17 14:52:00,
2013-09-17 10:57:00,53.5,43.2,30.49,NE,35,2.3,0.0,68,0.00,CLR,,0.00,563.0,WeatherDisplay:10.37,2013-09-17 14:57:00,
2013-09-17 11:02:00,53.9,42.0,30.49,East,91,2.0,2.0,64,0.00,CLR,,0.00,603.0,WeatherDisplay:10.37,2013-09-17 15:02:00,
2013-09-17 11:07:00,54.2,42.3,30.49,SSE,159,0.0,0.0,64,0.00,CLR,,0.00,666.0,WeatherDisplay:10.37,2013-09-17 15:07:00,
2013-09-17 11:12:00,53.8,42.3,30.49,ESE,108,1.2,0.0,65,0.00,CLR,,0.00,664.0,WeatherDisplay:10.37,2013-09-17 15:12:00,
2013-09-17 11:17:00,53.9,42.0,30.49,SW,227,5.0,5.0,64,0.00,CLR,,0.00,432.0,WeatherDisplay:10.37,2013-09-17 15:17:00,
2013-09-17 11:22:00,54.7,44.0,30.49,NNE,28,1.2,0.0,67,0.00,CLR,,0.00,708.0,WeatherDisplay:10.37,2013-09-17 15:22:00,
2013-09-17 11:27:00,55.6,41.5,30.49,ESE,108,3.5,3.5,59,0.00,CLR,,0.00,654.0,WeatherDisplay:10.37,2013-09-17 15:27:00,
2013-09-17 11:32:00,55.9,41.8,30.49,East,92,1.2,0.0,59,0.00,CLR,,0.00,693.0,WeatherDisplay:10.37,2013-09-17 15:32:00,
2013-09-17 11:37:00,56.7,43.8,30.49,NNE,33,0.0,0.0,62,0.00,CLR,,0.00,735.0,WeatherDisplay:10.37,2013-09-17 15:37:00,
2013-09-17 11:42:00,57.5,45.8,30.49,SSW,204,2.3,2.3,65,0.00,CLR,,0.00,724.0,WeatherDisplay:10.37,2013-09-17 15:42:00,
2013-09-17 11:47:00,57.3,41.3,30.49,SE,125,1.0,1.0,55,0.00,CLR,,0.00,724.0,WeatherDisplay:10.37,2013-09-17 15:47:00,
2013-09-17 11:52:00,56.5,41.4,30.49,East,94,7.0,7.0,57,0.00,CLR,,0.00,529.0,WeatherDisplay:10.37,2013-09-17 15:52:00,
2013-09-17 11:57:00,56.0,41.9,30.48,NNE,23,3.5,3.5,59,0.00,CLR,,0.00,501.0,WeatherDisplay:10.37,2013-09-17 15:57:00,
2013-09-17 12:02:00,55.6,40.1,30.48,ESE,109,3.5,3.5,56,0.00,CLR,,0.00,761.0,WeatherDisplay:10.37,2013-09-17 16:02:00,
2013-09-17 12:07:00,56.2,41.2,30.48,SSE,149,6.9,6.9,57,0.00,CLR,,0.00,724.0,WeatherDisplay:10.37,2013-09-17 16:07:00,
2013-09-17 12:12:00,56.7,39.7,30.47,South,186,10.4,10.4,53,0.00,CLR,,0.00,772.0,WeatherDisplay:10.37,2013-09-17 16:12:00,
2013-09-17 12:17:00,57.0,41.9,30.47,SSW,197,10.4,10.4,57,0.00,CLR,,0.00,775.0,WeatherDisplay:10.37,2013-09-17 16:17:00,
2013-09-17 12:22:00,57.0,40.0,30.47,ESE,117,6.0,6.0,53,0.00,CLR,,0.00,780.0,WeatherDisplay:10.37,2013-09-17 16:22:00,
2013-09-17 12:27:00,56.7,40.7,30.47,SSE,163,5.0,5.0,55,0.00,CLR,,0.00,784.0,WeatherDisplay:10.37,2013-09-17 16:27:00,
2013-09-17 12:32:00,57.0,39.5,30.47,ESE,103,1.0,0.0,52,0.00,CLR,,0.00,786.0,WeatherDisplay:10.37,2013-09-17 16:32:00,
2013-09-17 12:37:00,57.3,40.8,30.47,ESE,108,9.0,9.0,54,0.00,CLR,,0.00,791.0,WeatherDisplay:10.37,2013-09-17 16:37:00,
2013-09-17 12:42:00,57.3,38.8,30.47,SE,140,3.0,3.0,50,0.00,CLR,,0.00,791.0,WeatherDisplay:10.37,2013-09-17 16:42:00,
2013-09-17 12:47:00,57.5,41.0,30.47,ESE,117,10.4,10.4,54,0.00,CLR,,0.00,795.0,WeatherDisplay:10.37,2013-09-17 16:47:00,
2013-09-17 12:52:00,57.6,42.5,30.47,East,86,5.0,5.0,57,0.00,CLR,,0.00,798.0,WeatherDisplay:10.37,2013-09-17 16:52:00,
2013-09-17 12:57:00,57.5,39.5,30.46,East,81,1.0,0.0,51,0.00,CLR,,0.00,796.0,WeatherDisplay:10.37,2013-09-17 16:57:00,
2013-09-17 13:02:00,58.1,42.0,30.46,NE,53,3.0,3.0,55,0.00,CLR,,0.00,796.0,WeatherDisplay:10.37,2013-09-17 17:02:00,
2013-09-17 13:07:00,58.1,39.5,30.46,East,85,4.0,4.0,50,0.00,CLR,,0.00,796.0,WeatherDisplay:10.37,2013-09-17 17:07:00,
2013-09-17 13:12:00,58.1,40.1,30.45,North,11,5.0,5.0,51,0.00,CLR,,0.00,795.0,WeatherDisplay:10.37,2013-09-17 17:12:00,
2013-09-17 13:17:00,58.6,43.4,30.45,NNW,341,1.2,1.2,57,0.00,CLR,,0.00,796.0,WeatherDisplay:10.37,2013-09-17 17:17:00,
2013-09-17 13:22:00,59.5,41.9,30.45,NW,317,1.2,0.0,52,0.00,CLR,,0.00,735.0,WeatherDisplay:10.37,2013-09-17 17:22:00,
2013-09-17 13:28:00,60.1,42.9,30.45,SW,220,0.0,0.0,53,0.00,CLR,,0.00,788.0,WeatherDisplay:10.37,2013-09-17 17:28:00,
2013-09-17 13:33:00,59.9,40.7,30.45,North,357,4.0,4.0,49,0.00,CLR,,0.00,780.0,WeatherDisplay:10.37,2013-09-17 17:33:00,
2013-09-17 13:38:00,59.9,42.2,30.45,ESE,119,5.0,5.0,52,0.00,CLR,,0.00,788.0,WeatherDisplay:10.37,2013-09-17 17:38:00,
2013-09-17 13:43:00,59.5,39.8,30.44,ESE,113,3.5,0.0,48,0.00,CLR,,0.00,786.0,WeatherDisplay:10.37,2013-09-17 17:43:00,
2013-09-17 13:48:00,59.6,44.3,30.44,SSW,195,3.5,3.5,57,0.00,CLR,,0.00,784.0,WeatherDisplay:10.37,2013-09-17 17:48:00,
2013-09-17 13:53:00,60.1,43.4,30.44,SE,146,5.0,5.0,54,0.00,CLR,,0.00,780.0,WeatherDisplay:10.37,2013-09-17 17:53:00,
2013-09-17 13:58:00,59.9,41.2,30.44,SSE,167,2.3,2.3,50,0.00,CLR,,0.00,773.0,WeatherDisplay:10.37,2013-09-17 17:58:00,
2013-09-17 14:03:00,60.1,41.4,30.44,SSE,160,1.2,0.0,50,0.00,CLR,,0.00,772.0,WeatherDisplay:10.37,2013-09-17 18:03:00,
2013-09-17 14:08:00,60.2,42.0,30.44,NNW,327,2.3,2.3,51,0.00,CLR,,0.00,758.0,WeatherDisplay:10.37,2013-09-17 18:08:00,
2013-09-17 14:13:00,60.2,41.0,30.43,ESE,116,4.0,4.0,49,0.00,CLR,,0.00,759.0,WeatherDisplay:10.37,2013-09-17 18:13:00,
2013-09-17 14:18:00,60.1,41.4,30.43,NW,307,4.0,4.0,50,0.00,CLR,,0.00,754.0,WeatherDisplay:10.37,2013-09-17 18:18:00,
2013-09-17 14:23:00,60.4,45.5,30.43,WNW,299,1.2,1.2,58,0.00,CLR,,0.00,747.0,WeatherDisplay:10.37,2013-09-17 18:23:00,
2013-09-17 14:28:00,61.5,46.6,30.42,SSW,208,4.0,4.0,58,0.00,CLR,,0.00,742.0,WeatherDisplay:10.37,2013-09-17 18:28:00,
2013-09-17 14:33:00,62.1,43.7,30.42,NW,310,3.5,3.5,51,0.00,CLR,,0.00,733.0,WeatherDisplay:10.37,2013-09-17 18:33:00,
2013-09-17 14:38:00,62.0,44.2,30.42,NW,326,4.0,4.0,52,0.00,CLR,,0.00,726.0,WeatherDisplay:10.37,2013-09-17 18:38:00,
2013-09-17 14:43:00,62.1,43.7,30.42,ESE,102,2.0,2.0,51,0.00,CLR,,0.00,717.0,WeatherDisplay:10.37,2013-09-17 18:43:00,
2013-09-17 14:48:00,62.3,44.4,30.42,NE,39,2.3,2.3,52,0.00,CLR,,0.00,708.0,WeatherDisplay:10.37,2013-09-17 18:48:00,
2013-09-17 14:53:00,62.4,43.5,30.42,NNW,327,3.5,3.5,50,0.00,CLR,,0.00,701.0,WeatherDisplay:10.37,2013-09-17 18:53:00,
2013-09-17 14:58:00,62.9,46.0,30.41,NW,307,6.0,6.0,54,0.00,CLR,,0.00,693.0,WeatherDisplay:10.37,2013-09-17 18:58:00,
2013-09-17 15:03:00,63.4,45.5,30.41,NW,319,5.0,5.0,52,0.00,CLR,,0.00,684.0,WeatherDisplay:10.37,2013-09-17 19:03:00,
2013-09-17 15:08:00,64.0,48.9,30.41,NW,321,4.0,4.0,58,0.00,CLR,,0.00,671.0,WeatherDisplay:10.37,2013-09-17 19:08:00,
2013-09-17 15:13:00,64.5,44.9,30.41,NNW,331,0.0,0.0,49,0.00,CLR,,0.00,664.0,WeatherDisplay:10.37,2013-09-17 19:13:00,
2013-09-17 15:18:00,64.3,43.6,30.41,NNW,331,0.0,0.0,47,0.00,CLR,,0.00,654.0,WeatherDisplay:10.37,2013-09-17 19:18:00,
2013-09-17 15:23:00,65.0,48.4,30.41,NNW,335,1.0,0.0,55,0.00,CLR,,0.00,640.0,WeatherDisplay:10.37,2013-09-17 19:23:00,
2013-09-17 15:28:00,64.2,44.6,30.40,NNW,329,0.0,0.0,49,0.00,CLR,,0.00,633.0,WeatherDisplay:10.37,2013-09-17 19:28:00,
2013-09-17 15:33:00,63.2,43.2,30.40,East,81,3.5,0.0,48,0.00,CLR,,0.00,621.0,WeatherDisplay:10.37,2013-09-17 19:33:00,
2013-09-17 15:38:00,62.7,42.7,30.40,East,92,2.3,2.3,48,0.00,CLR,,0.00,610.0,WeatherDisplay:10.37,2013-09-17 19:38:00,
2013-09-17 15:43:00,62.6,43.7,30.40,East,87,1.2,1.2,50,0.00,CLR,,0.00,596.0,WeatherDisplay:10.37,2013-09-17 19:43:00,
2013-09-17 15:48:00,63.2,44.8,30.40,South,173,1.2,0.0,51,0.00,CLR,,0.00,584.0,WeatherDisplay:10.37,2013-09-17 19:48:00,
2013-09-17 15:53:00,62.9,42.4,30.40,ESE,114,0.0,0.0,47,0.00,CLR,,0.00,573.0,WeatherDisplay:10.37,2013-09-17 19:53:00,
2013-09-17 15:58:00,63.2,44.8,30.39,ESE,118,1.2,0.0,51,0.00,CLR,,0.00,559.0,WeatherDisplay:10.37,2013-09-17 19:58:00,
2013-09-17 16:03:00,63.5,45.0,30.39,ESE,118,1.2,0.0,51,0.00,CLR,,0.00,547.0,WeatherDisplay:10.37,2013-09-17 20:03:00,
2013-09-17 16:08:00,63.5,44.5,30.39,ESE,118,0.0,0.0,50,0.00,CLR,,0.00,534.0,WeatherDisplay:10.37,2013-09-17 20:08:00,
2013-09-17 16:13:00,63.9,43.8,30.39,SSW,206,0.0,0.0,48,0.00,CLR,,0.00,522.0,WeatherDisplay:10.37,2013-09-17 20:13:00,
2013-09-17 16:18:00,64.2,46.7,30.39,SSW,210,1.0,1.0,53,0.00,CLR,,0.00,508.0,WeatherDisplay:10.37,2013-09-17 20:18:00,
2013-09-17 16:23:00,64.0,42.8,30.39,SSW,208,1.2,0.0,46,0.00,CLR,,0.00,497.0,WeatherDisplay:10.37,2013-09-17 20:23:00,
2013-09-17 16:28:00,63.9,43.8,30.38,SSW,208,0.0,0.0,48,0.00,CLR,,0.00,482.0,WeatherDisplay:10.37,2013-09-17 20:28:00,
2013-09-17 16:33:00,63.4,41.1,30.38,South,190,1.2,1.2,44,0.00,CLR,,0.00,464.0,WeatherDisplay:10.37,2013-09-17 20:33:00,
2013-09-17 16:38:00,63.1,42.5,30.38,South,190,1.0,0.0,47,0.00,CLR,,0.00,450.0,WeatherDisplay:10.37,2013-09-17 20:38:00,
2013-09-17 16:43:00,63.2,41.5,30.38,South,189,2.3,2.3,45,0.00,CLR,,0.00,434.0,WeatherDisplay:10.37,2013-09-17 20:43:00,
2013-09-17 16:48:00,63.4,42.8,30.38,South,191,0.0,0.0,47,0.00,CLR,,0.00,420.0,WeatherDisplay:10.37,2013-09-17 20:48:00,
2013-09-17 16:53:00,63.7,45.2,30.38,South,191,1.2,0.0,51,0.00,CLR,,0.00,404.0,WeatherDisplay:10.37,2013-09-17 20:53:00,
2013-09-17 16:58:00,63.4,42.2,30.38,SE,133,4.0,4.0,46,0.00,CLR,,0.00,388.0,WeatherDisplay:10.37,2013-09-17 20:58:00,
2013-09-17 17:03:00,63.2,44.8,30.38,SE,133,0.0,0.0,51,0.00,CLR,,0.00,374.0,WeatherDisplay:10.37,2013-09-17 21:03:00,
2013-09-17 17:08:00,62.9,41.8,30.38,ESE,107,1.2,0.0,46,0.00,CLR,,0.00,360.0,WeatherDisplay:10.37,2013-09-17 21:08:00,
2013-09-17 17:13:00,62.6,39.8,30.38,SE,125,0.0,0.0,43,0.00,CLR,,0.00,343.0,WeatherDisplay:10.37,2013-09-17 21:13:00,
2013-09-17 17:18:00,62.6,42.1,30.38,SSW,199,0.0,0.0,47,0.00,CLR,,0.00,325.0,WeatherDisplay:10.37,2013-09-17 21:18:00,
2013-09-17 17:23:00,62.7,46.8,30.38,South,191,1.2,1.2,56,0.00,CLR,,0.00,308.0,WeatherDisplay:10.37,2013-09-17 21:23:00,
2013-09-17 17:28:00,62.4,46.0,30.38,SW,225,2.3,2.3,55,0.00,CLR,,0.00,294.0,WeatherDisplay:10.37,2013-09-17 21:28:00,
2013-09-17 17:33:00,61.8,47.8,30.38,SW,225,0.0,0.0,60,0.00,CLR,,0.00,274.0,WeatherDisplay:10.37,2013-09-17 21:33:00,
2013-09-17 17:38:00,61.2,48.1,30.38,SW,225,0.0,0.0,62,0.00,CLR,,0.00,257.0,WeatherDisplay:10.37,2013-09-17 21:38:00,
2013-09-17 17:43:00,60.9,46.5,30.37,SW,225,0.0,0.0,59,0.00,CLR,,0.00,211.0,WeatherDisplay:10.37,2013-09-17 21:43:00,
2013-09-17 17:48:00,60.4,46.0,30.37,SW,225,0.0,0.0,59,0.00,CLR,,0.00,76.0,WeatherDisplay:10.37,2013-09-17 21:48:00,
2013-09-17 17:53:00,60.1,46.6,30.37,SW,225,0.0,0.0,61,0.00,CLR,,0.00,30.0,WeatherDisplay:10.37,2013-09-17 21:53:00,
2013-09-17 17:58:00,59.6,46.6,30.37,SW,225,0.0,0.0,62,0.00,CLR,,0.00,21.0,WeatherDisplay:10.37,2013-09-17 21:58:00,
2013-09-17 18:03:00,59.3,46.7,30.37,SW,225,0.0,0.0,63,0.00,CLR,,0.00,21.0,WeatherDisplay:10.37,2013-09-17 22:03:00,
2013-09-17 18:08:00,59.0,47.2,30.37,SW,225,0.0,0.0,65,0.00,CLR,,0.00,19.0,WeatherDisplay:10.37,2013-09-17 22:08:00,
2013-09-17 18:13:00,58.6,48.5,30.37,SW,225,0.0,0.0,69,0.00,CLR,,0.00,19.0,WeatherDisplay:10.37,2013-09-17 22:13:00,
2013-09-17 18:18:00,58.1,48.0,30.37,SW,225,0.0,0.0,69,0.00,CLR,,0.00,18.0,WeatherDisplay:10.37,2013-09-17 22:18:00,
2013-09-17 18:23:00,57.6,47.9,30.37,SW,225,0.0,0.0,70,0.00,CLR,,0.00,18.0,WeatherDisplay:10.37,2013-09-17 22:23:00,
2013-09-17 18:28:00,57.2,47.9,30.36,SW,225,0.0,0.0,71,0.00,CLR,,0.00,16.0,WeatherDisplay:10.37,2013-09-17 22:28:00,
2013-09-17 18:33:00,56.6,47.3,30.36,SW,225,0.0,0.0,71,0.00,CLR,,0.00,14.0,WeatherDisplay:10.37,2013-09-17 22:33:00,
2013-09-17 18:38:00,56.2,47.3,30.36,SW,225,0.0,0.0,72,0.00,CLR,,0.00,14.0,WeatherDisplay:10.37,2013-09-17 22:38:00,
2013-09-17 18:43:00,55.7,46.8,30.36,SW,225,0.0,0.0,72,0.00,CLR,,0.00,12.0,WeatherDisplay:10.37,2013-09-17 22:43:00,
2013-09-17 18:48:00,55.1,46.2,30.36,SW,225,0.0,0.0,72,0.00,CLR,,0.00,11.0,WeatherDisplay:10.37,2013-09-17 22:48:00,
2013-09-17 18:53:00,54.5,46.0,30.36,SW,225,0.0,0.0,73,0.00,CLR,,0.00,9.0,WeatherDisplay:10.37,2013-09-17 22:53:00,
2013-09-17 18:58:00,54.1,47.4,30.36,SW,225,0.0,0.0,78,0.00,CLR,,0.00,7.0,WeatherDisplay:10.37,2013-09-17 22:58:00,
2013-09-17 19:03:00,53.3,47.0,30.36,SW,225,0.0,0.0,79,0.00,CLR,,0.00,5.0,WeatherDisplay:10.37,2013-09-17 23:03:00,
2013-09-17 19:08:00,52.8,46.5,30.36,SW,225,0.0,0.0,79,0.00,CLR,,0.00,0.0,WeatherDisplay:10.37,2013-09-17 23:08:00,
2013-09-17 19:13:00,52.3,46.3,30.35,SW,225,0.0,0.0,80,0.00,CLR,,0.00,0.0,WeatherDisplay:10.37,2013-09-17 23:13:00,
2013-09-17 19:18:00,51.6,46.6,30.35,SW,225,0.0,0.0,83,0.00,CLR,,0.00,0.0,WeatherDisplay:10.37,2013-09-17 23:18:00,
2013-09-17 19:24:00,51.1,46.4,30.35,SW,225,0.0,0.0,84,0.00,CLR,,0.00,0.0,WeatherDisplay:10.37,2013-09-17 23:24:00,
2013-09-17 19:29:00,50.8,46.8,30.35,SW,225,0.0,0.0,86,0.00,CLR,,0.00,0.0,WeatherDisplay:10.37,2013-09-17 23:29:00,
2013-09-17 19:34:00,50.4,46.4,30.35,SW,225,0.0,0.0,86,0.00,CLR,,0.00,0.0,WeatherDisplay:10.37,2013-09-17 23:34:00,
2013-09-17 19:39:00,49.9,45.9,30.35,SW,225,0.0,0.0,86,0.00,CLR,,0.00,0.0,WeatherDisplay:10.37,2013-09-17 23:39:00,
2013-09-17 19:44:00,49.5,45.8,30.35,SW,225,0.0,0.0,87,0.00,CLR,,0.00,0.0,WeatherDisplay:10.37,2013-09-17 23:44:00,
2013-09-17 19:49:00,49.2,45.5,30.35,SW,225,0.0,0.0,87,0.00,CLR,,0.00,0.0,WeatherDisplay:10.37,2013-09-17 23:49:00,
2013-09-17 19:54:00,48.9,45.5,30.35,SW,225,0.0,0.0,88,0.00,CLR,,0.00,0.0,WeatherDisplay:10.37,2013-09-17 23:54:00,
2013-09-17 19:59:00,48.6,45.5,30.36,SW,225,0.0,0.0,89,0.00,CLR,,0.00,0.0,WeatherDisplay:10.37,2013-09-17 23:59:00,
2013-09-17 20:04:00,48.2,45.1,30.36,SW,225,0.0,0.0,89,0.00,CLR,,0.00,0.0,WeatherDisplay:10.37,2013-09-18 00:04:00,
2013-09-17 20:09:00,47.7,44.9,30.36,SW,225,0.0,0.0,90,0.00,CLR,,0.00,0.0,WeatherDisplay:10.37,2013-09-18 00:09:00,
2013-09-17 20:14:00,47.4,44.9,30.35,SW,225,0.0,0.0,91,0.00,CLR,,0.00,0.0,WeatherDisplay:10.37,2013-09-18 00:14:00,
2013-09-17 20:19:00,47.1,44.6,30.35,SW,225,0.0,0.0,91,0.00,CLR,,0.00,0.0,WeatherDisplay:10.37,2013-09-18 00:19:00,
2013-09-17 20:24:00,46.7,44.2,30.35,SW,225,0.0,0.0,91,0.00,CLR,,0.00,0.0,WeatherDisplay:10.37,2013-09-18 00:24:00,
2013-09-17 20:29:00,46.5,44.3,30.35,SW,225,0.0,0.0,92,0.00,CLR,,0.00,0.0,WeatherDisplay:10.37,2013-09-18 00:29:00,
2013-09-17 20:34:00,46.4,44.2,30.35,SW,225,0.0,0.0,92,0.00,CLR,,0.00,0.0,WeatherDisplay:10.37,2013-09-18 00:34:00,
2013-09-17 20:39:00,46.1,43.9,30.35,SW,225,0.0,0.0,92,0.00,CLR,,0.00,0.0,WeatherDisplay:10.37,2013-09-18 00:39:00,
2013-09-17 20:44:00,45.8,43.6,30.35,SW,225,0.0,0.0,92,0.00,CLR,,0.00,0.0,WeatherDisplay:10.37,2013-09-18 00:44:00,
2013-09-17 20:49:00,45.5,43.3,30.35,SW,225,0.0,0.0,92,0.00,CLR,,0.00,0.0,WeatherDisplay:10.37,2013-09-18 00:49:00,
2013-09-17 20:54:00,45.4,43.2,30.35,SW,225,0.0,0.0,92,0.00,CLR,,0.00,0.0,WeatherDisplay:10.37,2013-09-18 00:54:00,
2013-09-17 20:59:00,45.2,43.3,30.35,SW,225,0.0,0.0,93,0.00,CLR,,0.00,0.0,WeatherDisplay:10.37,2013-09-18 00:59:00,
2013-09-17 21:04:00,45.1,43.2,30.35,SW,225,0.0,0.0,93,0.00,CLR,,0.00,0.0,WeatherDisplay:10.37,2013-09-18 01:04:00,
2013-09-17 21:09:00,44.9,43.0,30.35,SW,225,0.0,0.0,93,0.00,CLR,,0.00,0.0,WeatherDisplay:10.37,2013-09-18 01:09:00,
2013-09-17 21:14:00,44.9,43.0,30.35,SW,225,0.0,0.0,93,0.00,CLR,,0.00,0.0,WeatherDisplay:10.37,2013-09-18 01:14:00,
2013-09-17 21:19:00,44.9,43.3,30.35,SW,225,0.0,0.0,94,0.00,CLR,,0.00,0.0,WeatherDisplay:10.37,2013-09-18 01:19:00,
2013-09-17 21:24:00,44.9,43.3,30.35,SW,225,0.0,0.0,94,0.00,CLR,,0.00,0.0,WeatherDisplay:10.37,2013-09-18 01:24:00,
2013-09-17 21:29:00,45.1,43.5,30.35,SW,225,1.2,0.0,94,0.00,CLR,,0.00,0.0,WeatherDisplay:10.37,2013-09-18 01:29:00,
2013-09-17 21:34:00,45.2,43.6,30.35,SW,225,0.0,0.0,94,0.00,CLR,,0.00,0.0,WeatherDisplay:10.37,2013-09-18 01:34:00,
2013-09-17 21:39:00,44.9,43.3,30.35,South,187,2.3,2.3,94,0.00,CLR,,0.00,0.0,WeatherDisplay:10.37,2013-09-18 01:39:00,
2013-09-17 21:44:00,44.9,43.3,30.35,South,187,2.3,2.3,94,0.00,CLR,,0.00,0.0,WeatherDisplay:10.37,2013-09-18 01:44:00,
2013-09-17 21:49:00,44.6,43.0,30.35,SSE,160,2.3,2.3,94,0.00,CLR,,0.00,0.0,WeatherDisplay:10.37,2013-09-18 01:49:00,
2013-09-17 21:54:00,44.6,43.3,30.35,SSE,160,2.0,2.0,95,0.00,CLR,,0.00,0.0,WeatherDisplay:10.37,2013-09-18 01:54:00,
2013-09-17 21:59:00,44.5,43.2,30.35,SE,146,3.5,3.5,95,0.00,CLR,,0.00,0.0,WeatherDisplay:10.37,2013-09-18 01:59:00,
2013-09-17 22:04:00,44.6,43.3,30.35,SE,146,3.0,3.0,95,0.00,CLR,,0.00,0.0,WeatherDisplay:10.37,2013-09-18 02:04:00,
2013-09-17 22:09:00,44.8,43.5,30.35,SE,144,2.3,2.3,95,0.00,CLR,,0.00,0.0,WeatherDisplay:10.37,2013-09-18 02:09:00,
2013-09-17 22:14:00,44.6,43.3,30.34,SE,144,2.3,2.3,95,0.00,CLR,,0.00,0.0,WeatherDisplay:10.37,2013-09-18 02:14:00,
2013-09-17 22:19:00,44.2,42.9,30.34,SE,144,1.2,1.2,95,0.00,CLR,,0.00,0.0,WeatherDisplay:10.37,2013-09-18 02:19:00,
2013-09-17 22:24:00,44.1,42.8,30.34,SE,144,1.2,1.2,95,0.00,CLR,,0.00,0.0,WeatherDisplay:10.37,2013-09-18 02:24:00,
2013-09-17 22:29:00,43.8,42.5,30.34,SE,144,1.2,1.2,95,0.00,CLR,,0.00,0.0,WeatherDisplay:10.37,2013-09-18 02:29:00,
2013-09-17 22:35:00,43.6,42.3,30.34,SE,144,1.0,2.0,95,0.00,CLR,,0.00,0.0,WeatherDisplay:10.37,2013-09-18 02:35:00,
2013-09-17 22:40:00,43.8,42.5,30.34,SE,144,0.0,0.0,95,0.00,CLR,,0.00,0.0,WeatherDisplay:10.37,2013-09-18 02:40:00,
2013-09-17 22:45:00,43.8,42.5,30.34,SE,144,2.3,2.3,95,0.00,CLR,,0.00,0.0,WeatherDisplay:10.37,2013-09-18 02:45:00,
2013-09-17 22:50:00,43.9,42.6,30.34,SE,124,1.0,2.0,95,0.00,CLR,,0.00,0.0,WeatherDisplay:10.37,2013-09-18 02:50:00,
2013-09-17 22:55:00,44.1,42.8,30.34,ESE,115,0.0,0.0,95,0.00,CLR,,0.00,0.0,WeatherDisplay:10.37,2013-09-18 02:55:00,
2013-09-17 23:00:00,44.1,42.8,30.34,ESE,115,1.2,0.0,95,0.00,CLR,,0.00,0.0,WeatherDisplay:10.37,2013-09-18 03:00:00,
2013-09-17 23:05:00,43.9,42.6,30.34,ESE,115,2.0,2.0,95,0.00,CLR,,0.00,0.0,WeatherDisplay:10.37,2013-09-18 03:05:00,
2013-09-17 23:10:00,43.9,42.6,30.34,ESE,115,3.0,3.0,95,0.00,CLR,,0.00,0.0,WeatherDisplay:10.37,2013-09-18 03:10:00,
2013-09-17 23:16:00,43.9,42.6,30.34,ESE,115,0.0,0.0,95,0.00,CLR,,0.00,0.0,WeatherDisplay:10.37,2013-09-18 03:16:00,
2013-09-17 23:21:00,43.8,42.5,30.34,ESE,115,0.0,0.0,95,0.00,CLR,,0.00,0.0,WeatherDisplay:10.37,2013-09-18 03:21:00,
2013-09-17 23:26:00,43.5,42.2,30.34,ESE,115,3.0,3.0,95,0.00,CLR,,0.00,0.0,WeatherDisplay:10.37,2013-09-18 03:26:00,
2013-09-17 23:31:00,43.3,42.0,30.34,ESE,115,0.0,0.0,95,0.00,CLR,,0.00,0.0,WeatherDisplay:10.37,2013-09-18 03:31:00,
2013-09-17 23:36:00,43.2,41.9,30.34,ESE,115,0.0,0.0,95,0.00,CLR,,0.00,0.0,WeatherDisplay:10.37,2013-09-18 03:36:00,
2013-09-17 23:41:00,43.1,41.8,30.34,ESE,115,1.2,0.0,95,0.00,CLR,,0.00,0.0,WeatherDisplay:10.37,2013-09-18 03:41:00,
2013-09-17 23:46:00,42.9,41.6,30.34,ESE,115,0.0,0.0,95,0.00,CLR,,0.00,0.0,WeatherDisplay:10.37,2013-09-18 03:46:00,
2013-09-17 23:52:00,42.8,41.5,30.34,ESE,115,0.0,0.0,95,0.00,CLR,,0.00,0.0,WeatherDisplay:10.37,2013-09-18 03:52:00,
2013-09-17 23:57:00,42.5,41.2,30.34,ESE,115,1.0,1.0,95,0.00,CLR,,0.00,0.0,WeatherDisplay:10.37,2013-09-18 03:57:00,